Weather History for Quantico, VA

Change the Weather History Date:

Thursday, July 25, 2013

  Actual Average Record
Temperature  
Mean Temperature 74 °F -  
Max Temperature 82 °F 82 °F 100 °F (2010)
Min Temperature 66 °F 67 °F 51 °F (1996)
Cooling Degree Days 8    
Growing Degree Days 24 (Base 50)    
Moisture  
Dew Point 56 °F    
Average Humidity 53    
Maximum Humidity 73    
Minimum Humidity 36    
Precipitation  
Precipitation 0.00 in - - ()
Sea Level Pressure  
Sea Level Pressure 29.99 in    
Wind  
Wind Speed 10 mph (NNE)    
Max Wind Speed 17 mph    
Max Gust Speed 24 mph    
Visibility 10 miles    
Events      
Averages and records for this station are not official NWS values.
T = Trace of Precipitation, MM = Missing Value Source: NWS Daily Summary

Daily Weather History Graph

Daily Weather History Graph

Search for Another Location

Airport:

Trip Planner

Search our weather history database for the weather conditions in past years. The results will help you decide how hot, cold, wet, or windy it might be!

Date:

Astronomy

Jul. 25, 2013 Rise Set
Actual Time 6:05 AM EDT 8:25 PM EDT
Civil Twilight 5:35 AM EDT 8:55 PM EDT
Nautical Twilight 4:58 AM EDT 9:32 PM EDT
Astronomical Twilight 4:17 AM EDT 10:13 PM EDT
Moon 10:08 PM EDT (7/25) 9:29 AM EDT (7/25)
Length of Visible Light 15h 20m
Length of Day
14h 20m
Waning Gibbous, 88% of the Moon is Illuminated
Jul 25
Waning Gibbous
Jul 29
Last Quarter
Aug 6
New
Aug 14
First Quarter
Aug 20
Full

Hourly Weather History & Observations

Time (EDT) Temp. Heat Index Dew Point Humidity Pressure Visibility Wind Dir Wind Speed Gust Speed Precip Events Conditions
12:56 AM 77.0 °F - 57.0 °F 50% 29.93 in 10.0 mi NNE 10.4 mph 18.4 mph N/A   Overcast
1:56 AM 75.9 °F - 57.0 °F 52% 29.91 in 10.0 mi NNE 11.5 mph - N/A   Overcast
2:56 AM 75.0 °F - 57.0 °F 53% 29.92 in 10.0 mi NE 17.3 mph 24.2 mph N/A   Overcast
3:56 AM 73.0 °F - 55.9 °F 55% 29.93 in 10.0 mi NNE 13.8 mph - N/A   Overcast
4:56 AM 72.0 °F - 52.0 °F 49% 29.94 in 10.0 mi NNE 16.1 mph - N/A   Overcast
5:56 AM 70.0 °F - 51.1 °F 51% 29.95 in 10.0 mi NNE 10.4 mph - N/A   Overcast
6:56 AM 69.1 °F - 50.0 °F 51% 29.97 in 10.0 mi North 8.1 mph - N/A   Overcast
7:56 AM 66.9 °F - 52.0 °F 59% 29.98 in 10.0 mi North 10.4 mph - N/A   Overcast
8:56 AM 68.0 °F - 53.1 °F 59% 30.00 in 10.0 mi NNE 10.4 mph - N/A   Mostly Cloudy
9:56 AM 68.0 °F - 53.1 °F 59% 30.01 in 10.0 mi North 8.1 mph - N/A   Mostly Cloudy
10:56 AM 73.0 °F - 54.0 °F 51% 30.01 in 10.0 mi NNE 8.1 mph - N/A   Mostly Cloudy
11:56 AM 75.0 °F - 55.0 °F 50% 30.02 in 10.0 mi North 10.4 mph - N/A   Scattered Clouds
12:56 PM 78.1 °F - 55.0 °F 45% 30.01 in 10.0 mi NNE 6.9 mph - N/A   Partly Cloudy
1:56 PM 79.0 °F - 55.9 °F 45% 30.01 in 10.0 mi East 10.4 mph - N/A   Scattered Clouds
2:56 PM 81.0 °F 80.5 °F 54.0 °F 39% 29.99 in 10.0 mi Variable 5.8 mph - N/A   Scattered Clouds
3:56 PM 81.0 °F - 52.0 °F 36% 29.99 in 10.0 mi NNE 9.2 mph - N/A   Scattered Clouds
4:56 PM 81.0 °F 80.4 °F 53.1 °F 38% 29.99 in 10.0 mi NNE 6.9 mph - N/A   Scattered Clouds
5:56 PM 81.0 °F 80.4 °F 53.1 °F 38% 29.99 in 10.0 mi NNW 9.2 mph - N/A   Scattered Clouds
6:56 PM 81.0 °F 80.5 °F 54.0 °F 39% 30.00 in 10.0 mi North 5.8 mph - N/A   Scattered Clouds
7:56 PM 77.0 °F - 55.9 °F 48% 30.01 in 10.0 mi NW 8.1 mph - N/A   Scattered Clouds
8:56 PM 73.9 °F - 57.0 °F 55% 30.02 in 10.0 mi North 4.6 mph - N/A   Overcast
9:56 PM 73.9 °F - 63.0 °F 68% 30.04 in 10.0 mi East 10.4 mph - N/A   Mostly Cloudy
10:56 PM 73.9 °F - 64.0 °F 71% 30.04 in 10.0 mi East 6.9 mph - N/A   Mostly Cloudy
11:27 PM 73.4 °F - 64.4 °F 73% 30.05 in 10.0 mi East 8.1 mph - N/A   Overcast
11:34 PM 73.4 °F - 64.4 °F 73% 30.05 in 10.0 mi East 8.1 mph - N/A   Overcast
11:45 PM 73.4 °F - 62.6 °F 69% 30.05 in 10.0 mi East 6.9 mph - N/A   Overcast
11:56 PM 73.9 °F - 63.0 °F 68% 30.05 in 10.0 mi East 5.8 mph - N/A   Mostly Cloudy